Location: Morrison Planetarium
(37.7700°N, 122.4659°W)
Time: 16:03:57
(UTC-07:00)

N. Korean satellite - Visible Passes

Search period start: 20 October 2018 00:00
Search period end: 30 October 2018 00:00
Orbit: 459 x 510 km, 97.2° (Epoch: 20 October)

Date Brightness Start Highest point End Pass type
(mag) Time Alt. Az. Time Alt. Az. Time Alt. Az.
20 Oct 10.1 19:46:38 10° SW 19:48:52 15° W 19:51:07 10° NW visible
21 Oct 8.8 19:21:01 10° SSW 19:24:19 30° W 19:27:39 10° NNW visible
22 Oct 9.6 06:49:52 10° NE 06:52:47 23° E 06:55:39 10° SSE visible
22 Oct 7.1 18:56:09 10° S 18:59:51 66° W 19:03:34 10° NNW visible
23 Oct 10.5 06:27:06 10° ENE 06:28:10 11° E 06:29:15 10° ESE visible
24 Oct 9.9 19:42:05 10° SW 19:44:34 17° W 19:47:05 10° NW visible
25 Oct 8.6 19:16:36 10° SSW 19:20:01 34° W 19:23:28 10° NNW visible
26 Oct 9.7 06:45:45 10° NE 06:48:27 20° E 06:51:07 10° SE visible
26 Oct 6.9 18:51:51 10° S 18:55:34 75° WSW 18:59:18 10° NNW visible
28 Oct 9.7 19:37:32 10° SW 19:40:15 19° W 19:42:58 10° NW visible
29 Oct 8.4 07:05:19 10° NNE 07:08:38 37° E 07:11:53 10° SSE visible
29 Oct 8.3 19:12:12 10° SSW 19:15:42 38° W 19:19:13 10° NNW visible
